Fort Eustis, VA

10:47 AM EDT on September 19, 2017 (GMT -0400)
Felker Army Air Field

Weather History for KFAF - July, 2013

Change the Weather History Date:

Friday, July 19, 2013

  Actual Average Record
Temperature  
Mean Temperature 84 °F -  
Max Temperature 91 °F 86 °F 96 °F (1997)
Min Temperature 78 °F 70 °F 65 °F (2014)
Cooling Degree Days 20    
Growing Degree Days 34 (Base 50)    
Moisture  
Dew Point 76 °F    
Average Humidity 75    
Maximum Humidity 90    
Minimum Humidity 59    
Precipitation  
Precipitation 0.00 in - - ()
Sea Level Pressure  
Sea Level Pressure 30.02 in    
Wind  
Wind Speed 6 mph (SSW)    
Max Wind Speed 12 mph    
Max Gust Speed 16 mph    
Visibility 10 miles    
Events      
Averages and records for this station are not official NWS values.
T = Trace of Precipitation, MM = Missing Value Source: NWS Daily Summary

Daily Weather History Graph

Daily Weather History Graph

Search for Another Location

Airport or City:

Trip Planner

Search our weather history database for the weather conditions in past years. The results will help you decide how hot, cold, wet, or windy it might be!

Date:

Astronomy

Jul. 19, 2013 Rise Set
Actual Time 6:01 AM EDT 8:23 PM EDT
Civil Twilight 5:31 AM EDT 8:53 PM EDT
Nautical Twilight 4:54 AM EDT 9:30 PM EDT
Astronomical Twilight 4:14 AM EDT 10:10 PM EDT
Moon 5:24 PM EDT 2:39 AM EDT
Length of Visible Light 15h 22m
Length of Day
14h 22m
Waxing Gibbous, 86% of the Moon is Illuminated
Jul 19
Waxing Gibbous
Jul 22
Full
Jul 29
Last Quarter
Aug 6
New
Aug 14
First Quarter

Hourly Weather History & Observations

Time (EDT) Temp. Heat Index Dew Point Humidity Pressure Visibility Wind Dir Wind Speed Gust Speed Precip Events Conditions
12:58 AM 81.0 °F 86.9 °F 75.4 °F 83% 30.06 in 10.0 mi South 6.9 mph - N/A   Clear
1:58 AM 79.9 °F - 75.2 °F 86% 30.06 in 10.0 mi SSW 4.6 mph - N/A   Clear
2:58 AM 79.3 °F - 75.2 °F 87% 30.05 in 10.0 mi Variable 3.5 mph - N/A   Clear
3:58 AM 78.8 °F - 74.8 °F 88% 30.04 in 10.0 mi SSW 4.6 mph - N/A   Clear
4:58 AM 78.4 °F - 75.0 °F 89% 30.04 in 10.0 mi SSW 6.9 mph - N/A   Clear
5:58 AM 78.1 °F - 74.7 °F 89% 30.05 in 10.0 mi Variable 4.6 mph - N/A   Clear
6:58 AM 78.1 °F - 74.8 °F 90% 30.06 in 10.0 mi SW 4.6 mph - N/A   Clear
7:58 AM 79.5 °F - 75.2 °F 87% 30.06 in 10.0 mi SW 2.3 mph - N/A   Clear
8:58 AM 81.5 °F 88.3 °F 75.7 °F 83% 30.06 in 10.0 mi Variable 5.8 mph - N/A   Clear
9:58 AM 83.8 °F 93.2 °F 76.8 °F 79% 30.06 in 10.0 mi South 6.9 mph - N/A   Clear
10:58 AM 86.7 °F 98.8 °F 77.5 °F 74% 30.05 in 10.0 mi South 8.1 mph - N/A   Clear
11:58 AM 88.5 °F 101.1 °F 77.2 °F 69% 30.05 in 10.0 mi SSW 8.1 mph - N/A   Clear
12:58 PM 90.5 °F 103.4 °F 76.6 °F 64% 30.03 in 10.0 mi SW 8.1 mph - N/A   Scattered Clouds
1:58 PM 90.5 °F 104.7 °F 77.5 °F 66% 30.02 in 10.0 mi SSW 8.1 mph - N/A   Scattered Clouds
2:58 PM 91.4 °F 105.1 °F 77.0 °F 63% 29.99 in 10.0 mi SSW 9.2 mph - N/A   Partly Cloudy
3:58 PM 91.4 °F 102.5 °F 75.2 °F 59% 29.97 in 10.0 mi SW 9.2 mph - N/A   Partly Cloudy
4:58 PM 91.0 °F 102.9 °F 75.9 °F 61% 29.96 in 10.0 mi SW 10.4 mph 16.1 mph N/A   Partly Cloudy
5:58 PM 90.3 °F 101.6 °F 75.6 °F 62% 29.96 in 10.0 mi SW 6.9 mph - N/A   Clear
6:58 PM 89.1 °F 99.6 °F 75.6 °F 64% 29.96 in 10.0 mi SW 11.5 mph - N/A   Clear
7:58 PM 86.5 °F 96.9 °F 76.1 °F 71% 29.95 in 10.0 mi SSW 6.9 mph - N/A   Clear
8:58 PM 84.9 °F 93.3 °F 74.8 °F 72% 29.96 in 10.0 mi SSW 5.8 mph - N/A   Clear
9:58 PM 83.7 °F 91.3 °F 74.8 °F 75% 29.98 in 10.0 mi SSW 5.8 mph - N/A   Clear
10:58 PM 82.8 °F 89.5 °F 74.7 °F 76% 29.98 in 10.0 mi SSW 5.8 mph - N/A   Clear
11:58 PM 82.4 °F 88.4 °F 73.6 °F 75% 29.97 in 10.0 mi Variable 6.9 mph - N/A   Clear